Погода в Пархаре

Погода в Пархаре : погода сейчас, прогноз погоды и архив. Всё, что Вы хотите узнать о погоде в Пархаре!

Поиск расширенной информации на нашем сайте:

Другие новости

Новости СМИ2

Главная страница сайта

Новости сайта

03.07.2017

Напоминаем, что на нашем специализированном сайте Метеоцентр.Азия вы можете получить высокодетализированные автоматические прогнозы погоды по пунктам России, СНГ и мира в авиационном формате (включающие направление и скорость ветра, видимость, явления погоды, количество и форму облачности, нижнюю и верхнюю границу облачности).

Рекомендуем: http://profmoto.ru/ уход и натяжка цепи на квадроцикле.

Погода в Пархаре - сегодня

Время (UTC), дата Ветер
(°,м/с) 
Видим.   Явления Облачность Т
(°С)
Тd
(°С)
f(%) Тe
(°С)
Pmin
(гПа)
dP
(гПа)
Po
(мм)
O2
(г/м3)
Тmin Tmax R s Состояние
почвы
15 10.12.17 тихо ()   н/о  дымка  3/0 верхняя 
[Ci fib]
+5.1 +2.4 83 +5  1018.4  -0.1  723  286    +10.7       
18 10.12.17 тихо ()   н/о  дымка  3/0 верхняя 
[Ci fib]
+3.3 +2.3 93 +3  1018.9  0.1  723  288    +10.7       
21 10.12.17 тихо ()   н/о  дымка  3/0 верхняя 
[Ci fib]
+1.9 +1.1 94 +2  1018.3  -0.8  723  289           
00 11.12.17 090 (В) н/о  дымка  ясно 
+1.8 +1.3 96 +3  1017.4  -0.8  722  289           
03 11.12.17 090 (В) 0200 м  туман  н/о 
[]
-0.9 -0.9 100 1018.7  0.6  723  292  -1.2         
06 11.12.17 тихо ()   0200 м  туман  ?/?  
+1.8 +1.8 100 +2  1018.5  0.4  723  289  -1.1         
09 11.12.17 тихо ()   2000 м  туман  8/4 1000 м средняя 
[Sc|Ac trans]
+4.1 +2.9 92 +4  1015.7  -2.3  721  286           
12 11.12.17 тихо ()   10 км  {туман}  6/3 1000 м средняя 
[Sc|Ac trans]
+5.3 +3.1 86 +5  1014.5  -0.9  721  284           
15 11.12.17 тихо ()   н/о    10/10 1000 м 
[Sc]
+4 +2.2 88 +4  1016.2  1.4  722  286    +5.7       
18 11.12.17 360 (С) н/о    10/10 1000 м 
[Sc]
+3.8 +2.3 90 +3  1017.1  722  287    +5.7       
21 11.12.17 тихо ()   н/о    10/10 1000 м 
[Sc]
+3.7 +2.4 91 +4  1017.4  -0.1  722  287           
00 12.12.17 тихо ()   н/о    10/10 1000 м 
[Sc]
+3.3 +2.3 93 +3  1017.5  0.1  722  287           
03 12.12.17 тихо ()   2000 м  туман  10/10 1000 м 
[Sc]
+2.8 +2 94 +3  1018.9  1.4  723  288  +2.7         
06 12.12.17 тихо ()   4000 м  туман  10/10 1000 м 
[Sc]
+5.1 +2.7 84 +5  1020.1  1.3  724  286  +2.7         
09 12.12.17 тихо ()   4000 м  туман  9/9 1000 м 
[Sc]
+7 +1.5 68 +7  1019.7  0.2  725  284           
12 12.12.17 тихо ()   4000 м  туман  8/5 1000 м средняя 
[Sc|Ac trans]
+6.4 +1.7 72 +6  1021.2  1.1  725  285           
15 12.12.17 тихо ()   н/о  туман  3/0 средняя 
[Ac trans]
+4.4 +1.6 82 +4  1022.7  1.1  726  288    +7.5       
18 12.12.17 040 (СВ) н/о  туман  ясно 
+3.1 +1.3 88 +4  1023.5  0.6  727  289    +7.5       
21 12.12.17 тихо ()   н/о  туман  ясно 
+0.9 +0.1 94 +1  1023.6  -0.3  726  292           
00 13.12.17 тихо ()   н/о  туман  ясно 
+0.2 +0.2 100 1022.8  -1  726  292           
03 13.12.17 360 (С) 4000 м  туман  3/0 верхняя 
[Ci fib]
-0.7 -1 98 1022.7  -0.3  725  293  -0.8         
06 13.12.17 тихо ()   4000 м  туман  6/0 верхняя 
[Ci fib]
+1.7 +0.9 94 +2  1022.6  0.3  726  290  -0.8         
09 13.12.17 тихо ()   4000 м  туман  8/0 средняя, верхняя 
[Ac trans|Ci fib]
+6 +1.2 71 +6  1019.7  -1.7  724  285           
12 13.12.17 тихо ()   10 км  {туман}  8/0 средняя, верхняя 
[Ac trans|Ci fib]
+4.8 +2.1 83 +5  1019.1  -0.8  724  286           
15 13.12.17 310 (СЗ) н/о    3/0 верхняя 
[Ci fib]
+2.5 +1.2 91 +3  1019.8  0.1  724  289    +6.7       
Время (UTC), дата Ветер
(°,м/с) 
Видим.   Явления Облачность Т
(°С)
Тd
(°С)
f(%) Тe
(°С)
Pmin
(гПа)
dP
(гПа)
Po
(мм)
O2
(г/м3)
Тmin Tmax R s Состояние
почвы

Для получения пояснительной информации подведите курсор к названию столбца.

ПОГОДА в Пархаре - архив

Всё, что Вы хотите узнать о погоде в Пархаре - удобно и подробно!

Выберите нужную дату (начиная с 1 января 2015* года) и нажмите кнопку "Найти".
Будут отображены архивные сводки погоды по пункту Пархар, начиная с указанной даты.


Отображать данные в формате CSV (для использования в таблицах Excel)


Внимание! Наш архив погоды предназначен исключительно для личного некоммерческого использования в познавательных целях. Если Вам необходимы официальные справки о состоянии погоды (для производственных, юридических, коммерческих и т.п. целей), обращайтесь в органы Росгидромета.

*Примечание: данная дата относится к архиву по метеостанциям СССР (Россия, СНГ, Балтия).
Архив по метеостанциям Зарубежной Европы и Азии (кроме Китая) хранится 10 дней, по другим регионам земного шара (Китай, Африка, Америка, Австралия, Океания) - 1 день.

Пархар - район местоположения метеостанции


Название, широта, долгота, высота метеостанции:
Пархар 37.5°ш. 69.4°д. 448 м над ур. моря [Таджикистан]

Дополнительная информация

В oтличие oт бoльшинства пoгoдных сайтoв мы публикуем пoдрoбную метеoинфoрмацию в детальнoм прoфессиoнальнoм фoрмате.

Характеристики температуры и влажнoсти вoздуха измеряются на высoте 2 м в тени вдали oт зданий и деревьев.
Скoрoсть ветра измеряется на высoте 10 м (на урoвне рoста челoвека скoрoсть ветра ниже в 1.5-2 раза). Если метеoстанция нахoдится в гoрoде или в лесу, тo скoрoсть ветра занижена на 2-4 м/с пo сравнению с oткрытым местoм. Скoрoсть ветра над акватoриями крупных рек и oзёр, а также на вершинах хoлмoв на 2-5 м/с выше, чем в oбычных услoвиях.
Атмoсфернoе давление в разных тoчках местнoсти мoжет значительнo oтличаться oт давления на метеoстанции, в зависимoсти oт услoвий рельефа (при пoдъёме на 10 м давление пoнижается примернo на 1 мм рт.ст.).